Tracking 30685 objects as of 17-Jun-2025
HD Live streaming from Space Station
objects crossing your sky now

KSM1-C

Track KSM1-C now!
10-day predictions
KSM1-C is classified as:


NORAD ID: 46906
Int'l Code: 2020-081B
Perigee: 514.6 km
Apogee: 517.1 km
Inclination: 36.9 °
Period: 94.8 minutes
Semi major axis: 6886 km
RCS: Unknown
Launch date: November 7, 2020
Source: Luxembourg (LUXE)
Launch site: SRIHARIKOTA (SRI)

Uplink (MHz):
Downlink (MHz): 401.120
Beacon (MHz):
Mode: 9600bps FSK
Call sign:
Status: Active

Your satellite tracking list
Your tracking list is empty




NASA's NSSDC Master Catalog

Two Line Element Set (TLE):
1 46906U 20081B   25167.88567794  .00005959  00000-0  28219-3 0  9994
2 46906  36.8927 140.6517 0001869  19.1500 340.9317 15.19053550253524
Source of the keplerian elements: AFSPC